This is the latest recevied weather packets stored in our database for station/object 9M4RBN-3. If no packets are shown the sender has not sent any weather packets the latest 1 day(s).
| Time | Temp. | Humidity | Pressure | Rain* | Wind** | Luminosity | Snow |
|---|---|---|---|---|---|---|---|
| 1777899098 | 26.11° C | 45% | 1015.1 hPa | - | - | - | - |
| 1777898198 | 26.11° C | 44% | 1014.9 hPa | - | - | - | - |
| 1777897298 | 26.11° C | 44% | 1014.7 hPa | - | - | - | - |
| 1777896398 | 26.67° C | 44% | 1014.5 hPa | - | - | - | - |
| 1777895498 | 26.67° C | 45% | 1014.5 hPa | - | - | - | - |
| 1777894635 | 26.67° C | 47% | 1014.3 hPa | - | - | - | - |
| 1777894598 | 26.67° C | 47% | 1014.3 hPa | - | - | - | - |
| 1777893698 | 26.67° C | 52% | 1014.3 hPa | - | - | - | - |
| 1777892798 | 26.11° C | 53% | 1014.2 hPa | - | - | - | - |
| 1777891898 | 26.11° C | 55% | 1014.2 hPa | - | - | - | - |
| 1777890998 | 25.56° C | 45% | 1013.7 hPa | - | - | - | - |
| 1777890098 | 26.67° C | 44% | 1013.4 hPa | - | - | - | - |
| 1777889198 | 26.67° C | 59% | 1013 hPa | - | - | - | - |
| 1777888298 | 25.56° C | 50% | 1013.6 hPa | - | - | - | - |
| 1777887398 | 26.11° C | 38% | 1013 hPa | - | - | - | - |
| 1777886498 | 26.67° C | 41% | 1013.3 hPa | - | - | - | - |
| 1777885598 | 26.67° C | 42% | 1012.8 hPa | - | - | - | - |
| 1777884698 | 27.22° C | 45% | 1013.1 hPa | - | - | - | - |
| 1777883797 | 27.22° C | 49% | 1013.2 hPa | - | - | - | - |
| 1777882897 | 26.67° C | 50% | 1013.1 hPa | - | - | - | - |
| 1777881997 | 26.67° C | 50% | 1013.3 hPa | - | - | - | - |
| 1777881097 | 26.67° C | 51% | 1013.5 hPa | - | - | - | - |
| 1777880197 | 26.67° C | 51% | 1013.8 hPa | - | - | - | - |
| 1777879297 | 26.11° C | 52% | 1013.9 hPa | - | - | - | - |
| 1777878397 | 26.11° C | 51% | 1014.3 hPa | - | - | - | - |
* Rain since midnight (hover to see other rain measurements)
** Current wind speed in m/s (hover to see current wind gust speed)